Air Quality Table

TIMESTAMP NO2 O3 PM2.5 TEMP HUM AIRPRES WS WD NO
2021-06-18 13:00 0 ug/m3 83.45 ug/m3 19.4 ug/m3 25.96 C 53.61 % 1,006.27 mbar 2.32 m/s 207.33 Deg 0 ug/m3
2021-06-18 12:00 0 ug/m3 83.02 ug/m3 19.1 ug/m3 25.96 C 53.28 % 1,006.09 mbar 2.63 m/s 212.87 Deg 0 ug/m3
2021-06-18 11:00 0 ug/m3 85.48 ug/m3 20.3 ug/m3 25.96 C 54.29 % 1,006.20 mbar 2.38 m/s 207.68 Deg 0 ug/m3
2021-06-18 10:00 0 ug/m3 88.74 ug/m3 20.4 ug/m3 26 C 52.17 % 1,006.31 mbar 1.77 m/s 205 Deg 0 ug/m3
2021-06-18 09:00 0 ug/m3 81.87 ug/m3 22.1 ug/m3 25.27 C 56.24 % 1,006.32 mbar 1.44 m/s 210.57 Deg 0 ug/m3
2021-06-18 08:00 0 ug/m3 63.01 ug/m3 18.9 ug/m3 23.79 C 65.88 % 1,006.30 mbar 1.06 m/s 206.04 Deg 0 ug/m3
2021-06-18 07:00 0 ug/m3 46.1 ug/m3 17.5 ug/m3 22.55 C 72.33 % 1,006.15 mbar 0.97 m/s 185.51 Deg 0 ug/m3
2021-06-18 06:00 0 ug/m3 32.44 ug/m3 11 ug/m3 20.81 C 78.64 % 1,006.05 mbar 0.42 m/s 262.46 Deg 0 ug/m3
2021-06-18 05:00 0 ug/m3 36.02 ug/m3 9.5 ug/m3 20.48 C 77.58 % 1,005.58 mbar 0.46 m/s 267.69 Deg 0 ug/m3
2021-06-18 04:00 0 ug/m3 64.03 ug/m3 9.1 ug/m3 21.22 C 76.12 % 1,005.63 mbar 0.47 m/s 221.15 Deg 0 ug/m3
2021-06-18 03:00 0 ug/m3 80.69 ug/m3 7.8 ug/m3 21.54 C 74.99 % 1,005.25 mbar 0.71 m/s 249.8 Deg 0 ug/m3
2021-06-18 02:00 0 ug/m3 76.43 ug/m3 11.7 ug/m3 21.56 C 74.33 % 1,005.24 mbar 0.96 m/s 220.78 Deg 0 ug/m3
2021-06-18 01:00 0 ug/m3 83.42 ug/m3 12.5 ug/m3 21.67 C 73.77 % 1,005.18 mbar 1.2 m/s 195.07 Deg 0 ug/m3
2021-06-18 00:00 0 ug/m3 81.88 ug/m3 10.5 ug/m3 21.69 C 73.08 % 1,004.99 mbar 1.71 m/s 172.97 Deg 0 ug/m3
2021-06-17 23:00 0 ug/m3 73.69 ug/m3 13.7 ug/m3 21.69 C 72.02 % 1,005.93 mbar 1.16 m/s 199.75 Deg 0 ug/m3
2021-06-17 22:00 0 ug/m3 85.79 ug/m3 9.5 ug/m3 21.89 C 71.2 % 1,006.64 mbar 0.58 m/s 222.62 Deg 0 ug/m3
2021-06-17 21:00 0 ug/m3 80.52 ug/m3 8.4 ug/m3 22.04 C 69.81 % 1,006.37 mbar 0.67 m/s 245.41 Deg 0 ug/m3
2021-06-17 20:00 0 ug/m3 84.11 ug/m3 8.5 ug/m3 22.34 C 67.75 % 1,005.70 mbar 1.17 m/s 218.52 Deg 0 ug/m3
2021-06-17 19:00 0 ug/m3 89.16 ug/m3 9.8 ug/m3 23.04 C 63.61 % 1,005.43 mbar 1.63 m/s 211.3 Deg 0 ug/m3
2021-06-17 18:00 0 ug/m3 93.1 ug/m3 6.2 ug/m3 24.06 C 57.63 % 1,005.30 mbar 1.92 m/s 217.35 Deg 0 ug/m3
2021-06-17 17:00 0 ug/m3 92.01 ug/m3 10.6 ug/m3 24.75 C 54.36 % 1,005.31 mbar 2.2 m/s 227.95 Deg 0 ug/m3
2021-06-17 16:00 0 ug/m3 93.18 ug/m3 6.5 ug/m3 25.04 C 52.72 % 1,005.50 mbar 2.28 m/s 222.95 Deg 0 ug/m3
2021-06-17 15:00 0 ug/m3 94.88 ug/m3 11.3 ug/m3 25.02 C 52.46 % 1,005.71 mbar 2.44 m/s 217.25 Deg 0 ug/m3

It is to be noted that the data is provisional and subject to quality assurance procedures. For validated data kindly refer your request to contact.air@era.org.mt